| time (UTC) | temp C | wind direction | speed KPH | gust KPH | rain 1hr cm | rain 24hr cm | rain mn cm | humidity % | barometer mb |
| 20260505064601 | 17 | 59 | 14.5 | 27.4 | 0.00 | 0.00 | 0.00 | 64 | 1002.3 |
| 20260505063102 | 17 | 73 | 8.0 | 20.9 | 0.00 | 0.00 | 0.00 | 64 | 1002.1 |
| 20260505061600 | 17 | 54 | 9.7 | 17.7 | 0.00 | 0.00 | 0.00 | 64 | 1002.3 |
| 20260505060100 | 17 | 28 | 6.4 | 19.3 | 0.00 | 0.00 | 0.00 | 64 | 1002.2 |
| 20260505054556 | 17 | 68 | 8.0 | 17.7 | 0.00 | 0.00 | 0.00 | 63 | 1002.2 |
| 20260505053114 | 17 | 68 | 8.0 | 19.3 | 0.00 | 0.00 | 0.00 | 61 | 1002.3 |
| 20260505051555 | 17 | 66 | 9.7 | 19.3 | 0.00 | 0.00 | 0.00 | 60 | 1002.4 |
| 20260505050107 | 17 | 6 | 8.0 | 20.9 | 0.00 | 0.00 | 0.00 | 59 | 1002.3 |
| 20260505041555 | 17 | 54 | 3.2 | 11.3 | 0.00 | 0.00 | 0.00 | 57 | 1002.5 |
| 20260505040057 | 17 | 67 | 6.4 | 19.3 | 0.00 | 0.00 | 0.00 | 57 | 1002.8 |
| 20260505034615 | 16 | 54 | 8.0 | 22.5 | 0.00 | 0.00 | 0.00 | 59 | 1002.6 |
| 20260505033059 | 13 | 71 | 11.3 | 33.8 | 0.00 | 0.00 | 0.00 | 66 | 1002.8 |
| 20260505031559 | 11 | 0 | 0.0 | 0.0 | 0.00 | 0.00 | 0.00 | 68 | 1002.7 |
| 20260505030057 | 11 | 74 | 0.0 | 1.6 | 0.00 | 0.00 | 0.00 | 67 | 1002.6 |
| 20260505024554 | 11 | 0 | 0.0 | 1.6 | 0.00 | 0.00 | 0.00 | 64 | 1002.6 |
| 20260505023055 | 12 | 0 | 0.0 | 3.2 | 0.00 | 0.00 | 0.00 | 63 | 1002.6 |
| 20260505021601 | 12 | 74 | 1.6 | 3.2 | 0.00 | 0.00 | 0.00 | 61 | 1002.8 |
| 20260505014556 | 13 | 0 | 0.0 | 0.0 | 0.00 | 0.00 | 0.00 | 59 | 1003.0 |
| 20260505013055 | 13 | 0 | 1.6 | 1.6 | 0.00 | 0.00 | 0.00 | 55 | 1002.8 |
| 20260505011611 | 14 | 74 | 0.0 | 1.6 | 0.00 | 0.00 | 0.00 | 50 | 1002.7 |
| 20260505010056 | 15 | 0 | 0.0 | 1.6 | 0.00 | 0.00 | 0.00 | 49 | 1002.6 |
| 20260505004605 | 16 | 0 | 0.0 | 4.8 | 0.00 | 0.00 | 0.00 | 48 | 1002.6 |
| 20260505003057 | 17 | 0 | 0.0 | 3.2 | 0.00 | 0.00 | 0.00 | 42 | 1002.5 |
| 20260505001617 | 19 | 0 | 0.0 | 1.6 | 0.00 | 0.00 | 0.00 | 37 | 1002.4 |
| 20260505000107 | 20 | 0 | 0.0 | 1.6 | 0.00 | 0.00 | 0.00 | 34 | 1002.5 |
| 20260504234558 | 22 | 0 | 0.0 | 1.6 | 0.00 | 0.00 | 0.00 | 33 | 1002.4 |
| 20260504233110 | 22 | 74 | 3.2 | 6.4 | 0.00 | 0.00 | 0.00 | 32 | 1002.4 |
| 20260504231555 | 22 | 74 | 3.2 | 11.3 | 0.00 | 0.00 | 0.00 | 32 | 1002.4 |
| 20260504230056 | 23 | 65 | 4.8 | 14.5 | 0.00 | 0.00 | 0.00 | 30 | 1002.3 |
| 20260504224553 | 23 | 24 | 8.0 | 16.1 | 0.00 | 0.00 | 0.00 | 29 | 1002.1 |
| 20260504223053 | 23 | 79 | 9.7 | 16.1 | 0.00 | 0.00 | 0.00 | 31 | 1002.2 |
| 20260504221555 | 23 | 46 | 9.7 | 19.3 | 0.00 | 0.00 | 0.00 | 30 | 1002.1 |
| 20260504220101 | 23 | 99 | 11.3 | 20.9 | 0.00 | 0.00 | 0.00 | 31 | 1002.3 |
| 20260504214600 | 23 | 53 | 12.9 | 25.7 | 0.00 | 0.00 | 0.00 | 30 | 1002.4 |
| 20260504213054 | 23 | 65 | 12.9 | 22.5 | 0.00 | 0.00 | 0.00 | 31 | 1002.4 |
| 20260504211552 | 23 | 72 | 16.1 | 33.8 | 0.00 | 0.00 | 0.00 | 31 | 1002.4 |
| 20260504210058 | 22 | 72 | 16.1 | 30.6 | 0.00 | 0.00 | 0.00 | 32 | 1002.6 |
| 20260504204557 | 23 | 76 | 16.1 | 27.4 | 0.00 | 0.00 | 0.00 | 31 | 1002.6 |
| 20260504203058 | 23 | 44 | 17.7 | 33.8 | 0.00 | 0.00 | 0.00 | 32 | 1002.8 |
| 20260504201553 | 22 | 66 | 9.7 | 27.4 | 0.00 | 0.00 | 0.00 | 35 | 1003.0 |
| 20260504200104 | 22 | 79 | 14.5 | 29.0 | 0.00 | 0.00 | 0.00 | 34 | 1003.2 |
| 20260504194604 | 23 | 104 | 11.3 | 27.4 | 0.00 | 0.00 | 0.00 | 35 | 1003.3 |
| 20260504193113 | 22 | 70 | 17.7 | 30.6 | 0.00 | 0.00 | 0.00 | 36 | 1003.6 |
| 20260504191613 | 22 | 67 | 11.3 | 30.6 | 0.00 | 0.00 | 0.00 | 38 | 1003.7 |
| 20260504190057 | 22 | 20 | 17.7 | 33.8 | 0.00 | 0.00 | 0.00 | 37 | 1003.8 |
| 20260504184557 | 22 | 84 | 16.1 | 30.6 | 0.00 | 0.00 | 0.00 | 38 | 1004.0 |
| 20260504183057 | 21 | 79 | 14.5 | 29.0 | 0.00 | 0.00 | 0.00 | 42 | 1004.2 |
| 20260504181601 | 21 | 105 | 12.9 | 22.5 | 0.00 | 0.00 | 0.00 | 39 | 1004.2 |
| 20260504180059 | 21 | 45 | 14.5 | 27.4 | 0.00 | 0.00 | 0.00 | 43 | 1004.5 |
| 20260504174558 | 21 | 70 | 17.7 | 30.6 | 0.00 | 0.00 | 0.00 | 42 | 1004.7 |
| 20260504173058 | 21 | 66 | 11.3 | 29.0 | 0.00 | 0.00 | 0.00 | 46 | 1004.8 |
| 20260504171558 | 20 | 64 | 16.1 | 24.1 | 0.00 | 0.00 | 0.00 | 45 | 1004.7 |
| 20260504090124 | 11 | 36 | 6.4 | 19.3 | 0.00 | 0.00 | 0.00 | 54 | 1006.7 |
| 20260504081556 | 10 | 79 | 9.7 | 17.7 | 0.00 | 0.00 | 0.00 | 54 | 1007.1 |